Sparta, IL

5:37 AM CDT on September 25, 2016 (GMT -0500)
Sparta Community-Hunter

Weather History for KSAR - November, 2013

Change the Weather History Date:

Saturday, November 16, 2013

  Actual Average (KBLV) Record (KBLV)
Temperature  
Mean Temperature 54 °F -  
Max Temperature 62 °F 55 °F 75 °F (1952)
Min Temperature 46 °F 34 °F 15 °F (1959)
Degree Days  
Heating Degree Days 11    
Growing Degree Days 4 (Base 50)    
Moisture  
Dew Point 53 °F    
Average Humidity 89    
Maximum Humidity 94    
Minimum Humidity 82    
Precipitation  
Precipitation 0.08 in - - ()
Sea Level Pressure  
Sea Level Pressure 29.85 in    
Wind  
Wind Speed 12 mph (South)    
Max Wind Speed 21 mph    
Max Gust Speed 33 mph    
Visibility 10 miles    
Events Rain , Thunderstorm    
Averages and records for this station are not official NWS values.
T = Trace of Precipitation, MM = Missing Value Source: NWS Daily Summary

Daily Weather History Graph

Daily Weather History Graph

Search for Another Location

Airport or City:

Trip Planner

Search our weather history database for the weather conditions in past years. The results will help you decide how hot, cold, wet, or windy it might be!

Date:

Astronomy

Nov. 16, 2013 Rise Set
Actual Time 6:41 AM CST 4:45 PM CST
Civil Twilight 6:12 AM CST 5:13 PM CST
Nautical Twilight 5:40 AM CST 5:45 PM CST
Astronomical Twilight 5:09 AM CST 6:17 PM CST
Moon 4:20 PM CST (11/16) 5:38 AM CST (11/16)
Length of Visible Light 11h 01m
Length of Day
10h 04m
Waxing Gibbous, 99% of the Moon is Illuminated
Nov 16
Waxing Gibbous
Nov 17
Full
Nov 25
Last Quarter
Dec 2
New
Dec 9
First Quarter

Hourly Weather History & Observations

Time (CST) Temp. Windchill Dew Point Humidity Pressure Visibility Wind Dir Wind Speed Gust Speed Precip Events Conditions
12:15 AM 46.4 °F 42.4 °F 44.6 °F 93% 29.97 in 10.0 mi SSE 8.1 mph - N/A   Clear
12:35 AM 46.4 °F 42.4 °F 44.6 °F 93% 29.97 in 10.0 mi SSE 8.1 mph - N/A   Scattered Clouds
12:55 AM 46.4 °F 42.9 °F 44.6 °F 93% 29.96 in 10.0 mi SSE 6.9 mph - N/A   Clear
1:15 AM 48.2 °F - 44.6 °F 87% 29.97 in 10.0 mi South 8.1 mph - N/A   Mostly Cloudy
1:35 AM 50.0 °F - 46.4 °F 87% 29.97 in 10.0 mi South 6.9 mph - N/A   Overcast
1:55 AM 50.0 °F - 46.4 °F 87% 29.95 in 10.0 mi South 11.5 mph 19.6 mph N/A   Overcast
2:15 AM 50.0 °F - 46.4 °F 87% 29.94 in 10.0 mi South 10.4 mph - N/A   Overcast
2:35 AM 50.0 °F - 46.4 °F 87% 29.94 in 10.0 mi South 8.1 mph - N/A   Scattered Clouds
2:55 AM 50.0 °F - 46.4 °F 87% 29.94 in 10.0 mi South 6.9 mph - N/A   Scattered Clouds
3:15 AM 50.0 °F - 46.4 °F 87% 29.94 in 10.0 mi SSE 6.9 mph - N/A   Scattered Clouds
3:35 AM 50.0 °F - 46.4 °F 87% 29.94 in 10.0 mi South 10.4 mph - N/A   Mostly Cloudy
3:55 AM 50.0 °F - 48.2 °F 94% 29.94 in 10.0 mi South 9.2 mph 16.1 mph N/A   Overcast
4:15 AM 51.8 °F - 48.2 °F 88% 29.94 in 10.0 mi South 12.7 mph 16.1 mph N/A   Overcast
4:35 AM 51.8 °F - 48.2 °F 88% 29.93 in 10.0 mi South 9.2 mph 17.3 mph N/A   Overcast
4:55 AM 51.8 °F - 50.0 °F 94% 29.94 in 10.0 mi South 13.8 mph 19.6 mph N/A   Overcast
5:15 AM 51.8 °F - 50.0 °F 94% 29.93 in 10.0 mi South 12.7 mph 21.9 mph N/A   Overcast
5:35 AM 51.8 °F - 50.0 °F 94% 29.93 in 10.0 mi South 12.7 mph 19.6 mph N/A   Overcast
5:55 AM 51.8 °F - 50.0 °F 94% 29.93 in 10.0 mi South 13.8 mph - N/A   Overcast
6:15 AM 51.8 °F - 50.0 °F 94% 29.94 in 10.0 mi South 9.2 mph 19.6 mph N/A   Overcast
6:35 AM 51.8 °F - 50.0 °F 94% 29.93 in 10.0 mi South 15.0 mph 23.0 mph N/A   Overcast
6:55 AM 51.8 °F - 50.0 °F 94% 29.93 in 10.0 mi SSE 10.4 mph 18.4 mph N/A   Overcast
7:15 AM 51.8 °F - 50.0 °F 94% 29.94 in 10.0 mi South 12.7 mph 19.6 mph N/A   Overcast
7:35 AM 51.8 °F - 50.0 °F 94% 29.94 in 10.0 mi South 11.5 mph 19.6 mph N/A   Overcast
7:55 AM 51.8 °F - 50.0 °F 94% 29.93 in 10.0 mi South 12.7 mph 20.7 mph N/A   Overcast
8:15 AM 51.8 °F - 50.0 °F 94% 29.93 in 10.0 mi South 12.7 mph 20.7 mph N/A   Overcast
8:35 AM 51.8 °F - 50.0 °F 94% 29.92 in 10.0 mi South 15.0 mph 21.9 mph N/A   Overcast
8:55 AM 53.6 °F - 50.0 °F 88% 29.92 in 10.0 mi South 16.1 mph 20.7 mph N/A   Overcast
9:15 AM 53.6 °F - 50.0 °F 88% 29.92 in 10.0 mi South 12.7 mph 23.0 mph N/A   Overcast
9:35 AM 53.6 °F - 50.0 °F 88% 29.92 in 10.0 mi South 19.6 mph 27.6 mph N/A   Overcast
9:55 AM 53.6 °F - 50.0 °F 88% 29.91 in 10.0 mi South 15.0 mph 28.8 mph N/A   Mostly Cloudy
10:15 AM 55.4 °F - 50.0 °F 82% 29.91 in 10.0 mi South 16.1 mph 23.0 mph N/A   Mostly Cloudy
10:35 AM 55.4 °F - 50.0 °F 82% 29.91 in 10.0 mi South 11.5 mph 20.7 mph N/A   Overcast
10:55 AM 55.4 °F - 50.0 °F 82% 29.91 in 10.0 mi South 12.7 mph 18.4 mph N/A   Overcast
11:15 AM 55.4 °F - 50.0 °F 82% 29.90 in 10.0 mi South 13.8 mph 25.3 mph N/A   Overcast
11:35 AM 55.4 °F - 51.8 °F 88% 29.89 in 10.0 mi South 17.3 mph 26.5 mph N/A   Overcast
11:55 AM 55.4 °F - 51.8 °F 88% 29.87 in 10.0 mi South 16.1 mph 23.0 mph N/A   Overcast
12:15 PM 55.4 °F - 51.8 °F 88% 29.86 in 10.0 mi South 15.0 mph 23.0 mph N/A   Overcast
12:35 PM 55.4 °F - 51.8 °F 88% 29.85 in 10.0 mi South 17.3 mph 26.5 mph N/A   Overcast
12:55 PM 55.4 °F - 51.8 °F 88% 29.84 in 10.0 mi South 15.0 mph 24.2 mph N/A   Overcast
1:15 PM 55.4 °F - 53.6 °F 94% 29.84 in 10.0 mi South 15.0 mph 19.6 mph N/A   Overcast
1:35 PM 55.4 °F - 53.6 °F 94% 29.83 in 10.0 mi South 13.8 mph 20.7 mph N/A   Overcast
1:55 PM 55.4 °F - 53.6 °F 94% 29.82 in 10.0 mi South 15.0 mph 19.6 mph N/A   Overcast
2:15 PM 57.2 °F - 53.6 °F 88% 29.82 in 10.0 mi South 17.3 mph 25.3 mph N/A   Overcast
2:35 PM 57.2 °F - 53.6 °F 88% 29.82 in 10.0 mi South 15.0 mph 23.0 mph N/A Rain Light Rain
2:55 PM 57.2 °F - 55.4 °F 94% 29.80 in 10.0 mi South 13.8 mph 20.7 mph N/A   Overcast
3:15 PM 59.0 °F - 55.4 °F 88% 29.79 in 10.0 mi South 13.8 mph 23.0 mph N/A   Overcast
3:35 PM 59.0 °F - 55.4 °F 88% 29.78 in 10.0 mi South 15.0 mph 21.9 mph N/A   Overcast
3:55 PM 59.0 °F - 55.4 °F 88% 29.77 in 10.0 mi South 17.3 mph 26.5 mph N/A   Overcast
4:15 PM 59.0 °F - 55.4 °F 88% 29.76 in 10.0 mi South 17.3 mph 25.3 mph N/A   Overcast
4:35 PM 59.0 °F - 55.4 °F 88% 29.73 in 10.0 mi SSE 18.4 mph 27.6 mph N/A   Overcast
4:55 PM 60.8 °F - 55.4 °F 82% 29.74 in 10.0 mi South 20.7 mph 31.1 mph N/A   Overcast
5:15 PM 60.8 °F - 55.4 °F 82% 29.74 in 10.0 mi South 19.6 mph 27.6 mph N/A   Mostly Cloudy
5:35 PM 60.8 °F - 55.4 °F 82% 29.74 in 10.0 mi South 20.7 mph 27.6 mph N/A   Mostly Cloudy
5:55 PM 60.8 °F - 55.4 °F 82% 29.74 in 10.0 mi South 18.4 mph 26.5 mph N/A   Overcast
6:15 PM 60.8 °F - 57.2 °F 88% 29.74 in 10.0 mi South 16.1 mph 33.4 mph N/A Rain Light Rain
6:35 PM 62.6 °F - 57.2 °F 82% 29.74 in 10.0 mi South 18.4 mph 27.6 mph N/A Rain Light Rain
6:55 PM 62.6 °F - 59.0 °F 88% 29.74 in 10.0 mi South 12.7 mph 26.5 mph N/A Rain Light Rain
7:15 PM 62.6 °F - 59.0 °F 88% 29.74 in 10.0 mi South 17.3 mph 26.5 mph N/A   Overcast
7:35 PM 62.6 °F - 59.0 °F 88% 29.73 in 10.0 mi South 18.4 mph 27.6 mph N/A   Overcast
7:55 PM 62.6 °F - 59.0 °F 88% 29.72 in 10.0 mi South 16.1 mph 24.2 mph N/A   Overcast
8:15 PM 62.6 °F - 59.0 °F 88% 29.72 in 10.0 mi South 15.0 mph 23.0 mph N/A   Overcast
8:35 PM 62.6 °F - 59.0 °F 88% 29.73 in 10.0 mi South 12.7 mph 26.5 mph N/A   Overcast
8:55 PM 62.6 °F - 59.0 °F 88% 29.72 in 10.0 mi South 16.1 mph 26.5 mph N/A   Overcast
9:15 PM 62.6 °F - 59.0 °F 88% 29.72 in 10.0 mi South 17.3 mph 26.5 mph N/A   Overcast
9:35 PM 62.6 °F - 60.8 °F 94% 29.73 in 10.0 mi SSW 12.7 mph 23.0 mph N/A   Overcast
9:55 PM 62.6 °F - 60.8 °F 94% 29.73 in 10.0 mi SSW 15.0 mph 19.6 mph 0.01 in Rain , Thunderstorm Rain
10:15 PM 62.6 °F - 60.8 °F 94% 29.72 in 7.0 mi SSW 10.4 mph - 0.02 in Rain Rain
10:35 PM 62.6 °F - 60.8 °F 94% 29.72 in 7.0 mi SSW 8.1 mph 17.3 mph 0.02 in Thunderstorm Drizzle
10:55 PM 62.6 °F - 60.8 °F 94% 29.72 in 10.0 mi South 10.4 mph 19.6 mph 0.06 in Rain , Thunderstorm Light Thunderstorms and Rain
11:15 PM 62.6 °F - 60.8 °F 94% 29.71 in 10.0 mi South 9.2 mph - N/A Rain , Thunderstorm Light Thunderstorms and Rain
11:35 PM 62.6 °F - 60.8 °F 94% 29.70 in 10.0 mi South 9.2 mph 17.3 mph 0.01 in Rain Light Rain
11:55 PM 62.6 °F - 60.8 °F 94% 29.70 in 10.0 mi South 10.4 mph 16.1 mph 0.01 in   Overcast